Location: Newark
(48.3831°N, 4.1956°E)
Time: 12:00:24
(UTC+00:00)

ISS - Visible Passes

Search period start: 22 November 2019 00:00
Search period end: 02 December 2019 00:00
Orbit: 412 x 421 km, 51.6° (Epoch: 22 November)

Date Brightness Start Highest point End Pass type
(mag) Time Alt. Az. Time Alt. Az. Time Alt. Az.
22 Nov -1.6 17:27:59 10° S 17:29:52 14° SE 17:29:53 14° SE visible
22 Nov -0.4 19:02:47 10° WSW 19:02:48 10° WSW 19:02:48 10° WSW visible
23 Nov -2.3 18:14:32 10° SW 18:16:34 31° SSW 18:16:34 31° SSW visible
24 Nov -2.7 17:26:27 10° SSW 17:29:27 31° SE 17:30:15 27° ESE visible
24 Nov -0.5 19:02:41 10° W 19:03:09 13° W 19:03:09 13° W visible
25 Nov -2.0 16:38:35 10° S 16:41:10 21° SE 16:43:45 10° E visible
25 Nov -2.9 18:14:13 10° WSW 18:16:46 49° WSW 18:16:46 49° WSW visible
26 Nov -3.7 17:25:49 10° SW 17:29:09 66° SSE 17:30:19 36° E visible
26 Nov -0.5 19:02:44 10° W 19:03:13 13° W 19:03:13 13° W visible
27 Nov -3.1 16:37:34 10° SW 16:40:46 44° SSE 16:43:49 11° ENE visible
27 Nov -2.7 18:14:10 10° W 18:16:43 43° WNW 18:16:43 43° WNW visible
28 Nov -3.7 17:25:37 10° WSW 17:28:58 70° NNW 17:30:11 36° ENE visible
28 Nov -0.4 19:02:43 10° WNW 19:03:04 12° WNW 19:03:04 12° WNW visible
29 Nov -3.8 16:37:07 10° WSW 16:40:28 88° SSE 16:43:37 12° ENE visible
29 Nov -2.4 18:14:09 10° WNW 18:16:30 35° NW 18:16:30 35° NW visible
30 Nov -3.3 17:25:33 10° W 17:28:51 50° N 17:29:56 34° NE visible
30 Nov -0.4 19:02:35 10° WNW 19:02:49 12° WNW 19:02:49 12° WNW visible
01 Dec -3.5 16:36:57 10° W 16:40:17 58° NNW 16:43:20 12° ENE visible
01 Dec -2.3 18:14:03 10° WNW 18:16:14 33° NW 18:16:14 33° NW visible
